Погода в Часовне

Россия / Архангельская область     63°26′35″N   41°52′33″E
темп.,
°C
ветер,
м/с
пор.,
м/с
влажн.,
%
обл.,
%
осадки,
мм/ч
давл.,
гПа
погр.,
м
4 марта, чт
чт400:00−10ссз129787 0.0 99321
03:00−11с249787 0.1 994114
06:00−13с269789 0.1 994147
09:00−13с279391 0.1 995274
12:00−10с378352 0.0 995667
15:00−11ссз368575 0.1 996839
18:00−13с2696100 0.1 997198
21:00−18с239792 0.1 99876
5 марта, пт
пт500:00−20ссз229874 0.0 99940
03:00−20ссз259783 0.1 1001187
06:00−20сз269890 0.1 1002162
09:00−19ссз259587 0.1 1003231
12:00−15ссз258998 0.0 1005521
15:00−14ссз358799 0.1 1006708
18:00−16сз2595100 0.1 1007135
21:00−17сз249797 0.1 1009115
6 марта, сб
сб600:00−20сз129765 0.0 100920
03:00−19зюз129882 0.1 101027
06:00−19зюз1298100 0.1 100935
09:00−17юз2396100 0.1 1008119
12:00−12юз249299 0.1 1007330
15:00−9юз3591100 0.2 1005491
18:00−10ююз2696100 0.1 1003191
21:00−13ю3697100 0.2 1001157
7 марта, вс
вс700:00−16ююв389777 0.0 999144
03:00−15юв499579 0.0 998230
06:00−14юв4119297 0.0 995336
09:00−12вюв4118798 0.0 994443
12:00−10вюв4989100 0.1 994579
15:00−9в4891100 0.5 995731
18:00−10всв4993100 0.5 996676
21:00−11св41092100 0.8 998555
8 марта, пн
пн800:00−13ссв51092100 0.1 1000452
03:00−18ссв41094100 0.1 1002388
06:00−21ссв41095100 0.0 1004360
09:00−22с41095100 0.1 1006339
12:00−19с4991100 0.0 1008435
15:00−16с4989100 0.0 1010549
18:00−18с31092100 0.0 1012447
21:00−22с389568 0.0 1015220